Weather Roundup
Issued by NWS

Home | Current Version | Previous Version | Text Only | Print | Product List | Glossary On
Versions: 1 2 3 4 5 6 7 8 9 10 11 12 13 14 15 16 17 18 19 20 21 22 23 24 25 26 27 28 29 30 31 32 33 34 35 36 37 38 39 40 41 42 43 44 45 46 47 48 49 50
000
NZUS93 KARX 302310
HRRWXR

CURRENT HOURLY OBSERVATIONS ACROSS
MUCH OF THE UPPER MISSISSIPPI VALLEY
NATIONAL WEATHER SERVICE LA CROSSE WI
500 PM CST FRI JAN 30 2015


...SOUTHEAST MINNESOTA...


CITY           SKY/WX    TMP DP  RH WIND       PRES   REMARKS
ROCHESTER      CLEAR     22  13  68 S10       30.31F WCI  11
ROCHESTER/MAYO FAIR      24  12  59 S7        30.31F WCI  16
WINONA         CLEAR     27  10  50 SW3       30.37F
AUSTIN         CLEAR     27  18  69 S13       30.31F WCI  16
ALBERT LEA     CLEAR     28  19  69 S7        30.30F WCI  21
DODGE CENTER   CLEAR     25  18  74 S13       30.29F WCI  13
PRESTON        CLEAR     23  11  61 S8        30.33F WCI  14
OWATONNA       PTCLDY    28  18  64 S13       30.29F WCI  18
FARIBAULT      CLEAR     28  19  69 S7        30.29F WCI  21
$$

...ELSEWHERE IN MINNESOTA...


CITY           SKY/WX    TMP DP  RH WIND       PRES   REMARKS
MINNEAPOLIS    PTCLDY    27  15  61 S8        30.28F WCI  19
INTNL FALLS    CLOUDY    11   6  81 SE10      30.13F WCI  -3
DULUTH         MOCLDY    15   3  59 S9        30.20F WCI   3
RED WING       CLEAR     25  12  58 S5        30.31F WCI  19
REDWOOD FALLS  CLEAR     32  25  75 S15       30.20F WCI  22
MANKATO        CLEAR     28  19  69 S15       30.27F WCI  17
WORTHINGTON    CLEAR     32  25  74 S17G24    30.22F WCI  21
FAIRMONT       PTCLDY    30  21  69 S14       30.25F WCI  20
$$

...SOUTHWEST WISCONSIN...


CITY           SKY/WX    TMP DP  RH WIND       PRES   REMARKS
LA CROSSE      PTCLDY    25   8  48 S8        30.37F WCI  16
PRAIRIE DU CHI CLEAR     26   8  44 S6        30.39F WCI  20
BOSCOBEL       CLEAR     25   8  48 S7        30.40F WCI  17
LONE ROCK      CLEAR     24   8  50 SW7       30.39F WCI  16
PLATTEVILLE    CLEAR     25  14  63 SE5       30.38F WCI  19
FORT MC COY    CLOUDY    23   7  49 SW3       30.39S
CAMP DOUGLAS   PTCLDY    21   8  56 W3        30.38F
VIROQUA        FAIR      23   9  55 SW7       30.35S WCI  14
WIS DELLS      CLOUDY    22   8  53 CALM      30.37F
$$

...ELSEWHERE IN WISCONSIN...


CITY           SKY/WX    TMP DP  RH WIND       PRES   REMARKS
MILWAUKEE      PTCLDY    25   6  44 SW8       30.41F WCI  16
MADISON        PTCLDY    24   8  50 SW3       30.39F
GREEN BAY      MOCLDY    21   9  59 SW5       30.40S WCI  15
EAU CLAIRE     CLEAR     19   5  54 S7        30.33F WCI  10
BLACK RVR FLS  FAIR      21   4  49 CALM      30.37F
MEDFORD        CLOUDY    15   6  67 S5        30.31F WCI   7
WAUSAU         PTCLDY    17   4  56 W5        30.32F WCI  10
WIS RAPIDS     PTCLDY    20   6  55 S6        30.37F WCI  12
MARSHFIELD     PTCLDY    20   6  55 CALM      30.33F
RICE LAKE      PTCLDY    17   7  62 SE7       30.31F WCI   8
$$

...NORTHEAST IOWA...


CITY           SKY/WX    TMP DP  RH WIND       PRES   REMARKS
DECORAH        CLEAR     27   5  39 SW5       30.34F WCI  21
MASON CITY     CLEAR     28  18  66 S10       30.33F WCI  19
CHARLES CITY   CLEAR     28  12  50 S12       30.36F WCI  18
OELWEIN        CLEAR     27  12  54 S9        30.37F WCI  17
$$

...ELSEWHERE IN IOWA...


CITY           SKY/WX    TMP DP  RH WIND       PRES   REMARKS
DES MOINES     MOCLDY    35  13  40 S8        30.39F WCI  29
IOWA CITY      CLEAR     30  17  58 S6        30.44F WCI  24
FORT DODGE     CLEAR     32  18  55 S12       30.33F WCI  23
$$

...NORTHERN ILLINOIS...


CITY           SKY/WX    TMP DP  RH WIND       PRES   REMARKS
CHICAGO-OHARE  CLEAR     27   9  46 W7        30.42F WCI  19
CHICAGO-MIDWAY PTCLDY    29  15  56 SE8       30.43F WCI  21
MOLINE         CLEAR     28  16  60 SW5       30.44F WCI  23
ROCKFORD       PTCLDY    26  13  57 SW7       30.44F WCI  18
PEORIA         CLEAR     34  18  52 CALM      30.46F
$$

NOTE: "FAIR" INDICATES FEW OR NO CLOUDS BELOW 12,000 FEET WITH NO
SIGNIFICANT WEATHER AND/OR OBSTRUCTIONS TO VISIBILITY. WIND
SPEEDS ARE IN MILES-PER-HOUR.



USA.gov is the U.S. government's official web portal to all federal, state and local government web resources and services.